This is the latest recevied weather packets stored in our database for station/object LRCV. If no packets are shown the sender has not sent any weather packets the latest 10 day(s).
| Time | Temp. | Humidity | Pressure | Rain* | Wind** | Luminosity | Snow |
|---|---|---|---|---|---|---|---|
| 1778057322 | 20° C | 60% | 1015 hPa | - | - | - | - |
| 1778056421 | 20° C | 60% | 1015 hPa | - | - | - | - |
| 1778055518 | 18.89° C | 60% | 1015 hPa | - | - | - | - |
| 1778054622 | 18.89° C | 60% | 1015 hPa | - | - | - | - |
| 1778053722 | 17.78° C | 64% | 1015 hPa | - | - | - | - |
| 1778052822 | 17.78° C | 64% | 1015 hPa | - | - | - | - |
| 1778051921 | 17.78° C | 68% | 1015 hPa | - | - | - | - |
| 1778051021 | 17.78° C | 68% | 1015 hPa | - | - | - | - |
| 1778050121 | 16.11° C | 72% | 1015 hPa | - | - | - | - |
| 1778049221 | 16.11° C | 72% | 1015 hPa | - | - | - | - |
| 1778048322 | 15° C | 77% | 1015 hPa | - | - | - | - |
| 1778047423 | 15° C | 77% | 1015 hPa | - | - | - | - |
| 1778046523 | 13.89° C | 77% | 1014 hPa | - | - | - | - |
| 1778045630 | 13.89° C | 77% | 1014 hPa | - | - | - | - |
| 1778044722 | 12.78° C | 82% | 1014 hPa | - | - | - | - |
| 1778043835 | 12.78° C | 82% | 1014 hPa | - | - | - | - |
| 1778042937 | 12.22° C | 88% | 1014 hPa | - | - | - | - |
| 1778042025 | 12.22° C | 88% | 1014 hPa | - | - | - | - |
| 1778041122 | 10° C | 88% | 1014 hPa | - | - | - | - |
| 1778040221 | 10° C | 88% | 1014 hPa | - | - | - | - |
| 1778039322 | 8.89° C | 94% | 1014 hPa | - | - | - | - |
| 1778038421 | 8.89° C | 94% | 1014 hPa | - | - | - | - |
| 1778037521 | 7.78° C | 93% | 1014 hPa | - | - | - | - |
| 1778036621 | 7.78° C | 93% | 1014 hPa | - | - | - | - |
| 1778035722 | 8.89° C | 94% | 1014 hPa | - | - | - | - |
* Rain since midnight (hover to see other rain measurements)
** Current wind speed in m/s (hover to see current wind gust speed)